Regional Weather Roundup
Issued by NWS Wakefield, VA

Home | Current Version | Previous Version | Text Only | Print | Product List | Glossary Off
Versions: 1 2 3 4 5 6 7 8 9 10 11 12 13 14 15 16 17 18 19 20 21 22 23 24 25 26 27

000
ASUS41 KAKQ 221415
RWRAKQ

REGIONAL WEATHER ROUNDUP
NATIONAL WEATHER SERVICE WAKEFIELD VA
1000 AM EDT TUE AUG 22 2017

Note: "fair" indicates few or no clouds below 12,000 feet with no
significant weather and/or obstructions to visibility. * = Denotes
station may not report precipitation (e.g., rain,snow,etc.),
thunder or fog.

VAZ042-051-052>054-056-221500-
NORTHERN VIRGINIA

CITY           SKY/WX    TMP DP  RH WIND       PRES   REMARKS
WASH NATIONAL  MOSUNNY   82  76  81 S9        30.03F
DULLES         MOSUNNY   80  74  81 S5        30.02F
FORT BELVOIR   SUNNY     80  73  77 S7        30.03F
QUANTICO       MOSUNNY   82  76  81 S8        30.04F
FREDERICKSBRG* SUNNY     83  74  73 SW8       30.03F
STAFFORD*      SUNNY     80  76  87 S3        30.08S
WARRENTON      SUNNY     82  71  69 SW7       30.03F
CULPEPER*      SUNNY     81  74  77 SW8       30.04F
MANASSAS*      SUNNY     80  74  81 S8        30.03F
LEESBURG*      SUNNY     82  73  74 S3        30.03F
WINCHESTER     SUNNY     79  70  73 SW6       30.03F
FRONT ROYAL*   SUNNY     79  72  78 SW8       30.03F
LURAY*         SUNNY     81  72  74 SW7       30.06S
$$

VAZ048-049-060>072-079>083-221500-
CENTRAL AND SOUTH CENTRAL VIRGINIA

CITY           SKY/WX    TMP DP  RH WIND       PRES   REMARKS
RICHMOND       MOSUNNY   82  75  79 SW9       30.07F
CHESTERFIELD*  FAIR      83  76  79 VRB7      30.08F
PETERSBURG*    SUNNY     82  73  74 SW6       30.09F
HANOVER        SUNNY     84  72  67 S8        30.07F
TAPPAHANNOCK*  SUNNY     83  72  68 S8        30.07F
QUINTON*       FAIR     N/A N/A N/A SW6       30.07F
CHARLOTTSVILLE SUNNY     82  72  71 S9        30.05F
GORDONSVILLE*  SUNNY     80  73  79 SW6       30.05F
ORANGE*        SUNNY     81  72  74 CALM      30.04F
LOUISA*        SUNNY     81  72  74 SW5       30.06S
BUMPASS*       FAIR      80  74  84 SW6       30.06F
FARMVILLE*     SUNNY     82  69  64 SW5       30.06F
CREWE*         FAIR      83  73  71 SW6       30.08F
FORT PICKETT*  FAIR     N/A N/A N/A SW10      30.09F
CHASE CITY*    FAIR      82  78  89 CALM      30.10F
CLARKSVILLE*   FAIR      81  75  83 SW6       30.10F
SOUTH HILL*    SUNNY     82  77  84 SW5       30.16F
LAWRENCEVILLE* FAIR      81  76  83 SW8       30.10F
EMPORIA*       MOSUNNY   81  75  83 S3        30.11F
$$

VAZ088>098-221500-
SOUTHEAST VIRGINIA

CITY           SKY/WX    TMP DP  RH WIND       PRES   REMARKS
NORFOLK        MOSUNNY   84  76  76 S10       30.09F
VIRGINIA BEACH MOSUNNY   82  74  76 SW10      30.09F
NORFOLK NAVAL  MOSUNNY   84  75  74 SW8       30.10F
WEST POINT*    SUNNY     83  74  73 SW7       30.09F
SALUDA*        FAIR      83  76  80 SW10G17   30.07F
NEWPORT NEWS   SUNNY     83  76  79 SW10      30.09S
LANGLEY AFB    MOSUNNY   83  76  78 SW10      30.09S
FORT EUSTIS    MOSUNNY   84  76  76 S5        30.07S
WILLIAMSBURG*  SUNNY     84  77  79 SW5       30.10S
HR EXEC AP*    FAIR      81  75  83 SW6       30.08S
FRANKLIN*      CLOUDY    78  74  88 S5        30.11S
US460-WAKEFLD  SUNNY     82  76  81 VRB6      30.09F
$$

VAZ020-022-025-037-045-221500-
WEST CENTRAL AND SOUTHWEST VIRGINIA

CITY           SKY/WX    TMP DP  RH WIND       PRES   REMARKS
STAUNTON*      SUNNY     79  70  73 S6        30.10F
WAYNESBORO*    SUNNY     81  71  71 SW7       30.10F
HOT SPRINGS VA SUNNY     73  63  68 W14       30.24S
LYNCHBURG      SUNNY     79  70  74 SW8       30.10F
DANVILLE       SUNNY     79  74  84 VRB3      30.10F
SOUTH BOSTON*  FAIR      82  75  79 S7        30.09F
MARTINSVILLE   SUNNY     79  71  77 SW3       30.15S
ROANOKE        MOSUNNY   79  71  76 W8        30.13F
BLACKSBURG     MOSUNNY   74  71  91 W3        30.20S
DUBLIN*        SUNNY     75  73  93 CALM      30.19S
MARION*        MOSUNNY   76  54  46 W8        30.23S
HILLSVILLE*    SUNNY     73  65  75 CALM      30.21S
RICHLANDS*     FAIR      75  65  71 W7        30.21S
WISE*          MOSUNNY   73  66  78 SW12      30.21F
ABINGDON*      MOSUNNY   79  71  75 W3        30.19S
$$

MDZ021>025-VAZ099-100-221500-
SOUTHERN MARYLAND AND THE DELMARVA PENINSULA

CITY           SKY/WX    TMP DP  RH WIND       PRES   REMARKS
PATUXENT RIVER MOSUNNY   82  75  79 SW12      30.04F
BAY BRIDGE APT SUNNY     82  73  74 SW13G18   30.02F
LEONARDTOWN    SUNNY     81  72  74 SW10      30.06F
DOVER          MOSUNNY   82  75  78 SW14G21   30.01F
GEORGETOWN     SUNNY     85  75  72 SW13      30.05F
EASTON         NOT AVBL
CAMBRIDGE      SUNNY     82  75  78 SW12      30.04F
SALISBURY      MOSUNNY   84  77  79 SW15      30.06F
OCEAN CITY     SUNNY     83  77  82 SW9       30.07F
WALLOPS ISLAND MOSUNNY   83  77  82 SW9       30.08F
ACCOMACK*      MOSUNNY   83  76  79 SW10      30.08F
$$

NCZ012>017-030>032-221500-
NORTH CENTRAL AND EASTERN NORTH CAROLINA

CITY           SKY/WX    TMP DP  RH WIND       PRES   REMARKS
ROANOKE RAPIDS FAIR      77  75  94 SW3       30.11S
RALEIGH        MOSUNNY   84  75  74 SW6       30.12F
ELIZABETH CITY MOSUNNY   83  77  82 SW8       30.11S
AHOSKIE*         N/A     78  76  92 CALM      30.11S
EDENTON*       PTSUNNY   81  77  86 CALM      30.12S
CURRITUCK*     MOSUNNY   82  74  77 CALM      30.12S
KILL DEVIL HLS SUNNY     82  74  77 CALM      30.11S
MANTEO         SUNNY     81  76  83 CALM      30.12F
CAPE HATTERAS  SUNNY     84  77  79 S6        30.12S
TARBORO*       NOT AVBL
GOLDSBORO      PTSUNNY   82  82 100 VRB2      30.11S HX  97
WASHINGTON     SUNNY     82  75  79 SW6       30.12S
GREENVILLE     MOSUNNY   81  75  83 SW5       30.13S
NEW BERN       PTSUNNY   85  76  74 W3        30.13S
WILMINGTON     PTSUNNY   83  77  82 CALM      30.11S
$$

VAZ048-221500-
ELSEWHERE

CITY           SKY/WX    TMP DP  RH WIND       PRES   REMARKS
HARRISBURG PA  SUNNY     80  73  79 E3        30.00F
BALTIMORE      MOSUNNY   82  76  81 SW6       30.02F
ANNAPOLIS      NOT AVBL
ANDREWS AFB    SUNNY     81  73  75 SW9       30.03F
PHILADELPHIA   CLOUDY    80  73  79 SW10      30.02F
HENDERSON NC   SUNNY     79  72  79 SW3       30.11F
GREENSBORO     MOSUNNY   81  76  84 SW8       30.12F
ROCKY MOUNT    PTSUNNY   80  77  90 S6        30.12S
$$

VAZ100-221500-
MARINE

STATION/POSITION TIME  TEMP    WIND        PRES    WAVE   SWELL
                       AIR SEA DIR/SP/G            HT/PER HT/PER
                 (UTC) (F)     (DEG/KT/KT) (MB)    (FT/S) (FT/S)
BRANDYWINE LGT   1342   80     230/ 15/ 16 1017.5F
CAPE MAY NJ      1348   80 77  220/ 11/ 14 1016.8F
LEWES DE         1348   83 76  240/  7/ 10 1017.1F
15NM E FENWICK I 1250   79 78  210/ 16/ 17 1018.5    3/ 4   2/10
OCEAN-CITY-INLET 1348   80 77  220/ 15/ 17 1018.4F
WACHAPREAGUE VA  1348   84 82  220/  7/ 12 1018.6F
THOMAS POINT MD  1300   79 81  210/  7/  8   N/A
GOOSES REEF MD   1400   82 80  220/ 14/ 16 1017.3    1/ 3
COVE POINT MD    1348   82     240/ 14/ 19 1017.7F
SOLOMONS ISLAND  1348   83 82  230/ 14/ 16   N/A
BISHOPS HEAD MD  1348   81 81  200/ 13/ 16 1017.8F
PINEY POINT MD   1348          240/  7/ 10   N/A
POTOMAC MD       1400   82 82  220/ 10/ 12 1016.9    1/ 3
CAMBRIDGE MD     1342   85 83              1018.1F
LEWISETTA VA     1348   83 83  230/ 12/ 14 1017.5F
RAPPAHANNOCK LGT 1348          210/ 13/ 15 1019.2F
STINGRAY PT      1400   82 82  240/ 10/ 12 1018.7    1/ 2
YORK RVR RNG VA  1348   82     230/  8/  9 1019.2S
YORKTOWN VA      1348   82 83  230/  8/ 10 1018.4S
JAMESTOWN VA     1400      85  210/  4/  8   N/A     0
DOMINION TERM VA 1348   78     210/  7/  8 1019.2F
KIPTOPEKE VA     1348      81  200/ 10/ 11   N/A
CHES BAY BRIDGE  1348   80 80  220/  9/ 10 1018.9F
CAPE HENRY VA    1348   82     200/  5/ 10   N/A
WILLOUBY STN VA  1348   80     230/  8/  8 1019.0F
S CRANEY ISL VA  1348   80     200/  7/  8 1019.0F
CAPE HENRY BUOY  1330      80                N/A     2/ 9   2/12
1ST LANDING BUOY 1400   81 81              1018.9    1/ 3
64NM E OF VA BCH 1250   79 79  200/  6/  8 1020.2    2/ 9   2/ 9
DUCK PIER NC     1348   80 75  200/  9/ 11 1019.1F
44100 DUCK FRF   1305      81                N/A     2/ 9   2/11
44056 DUCK FRF   1330      80                N/A     2/ 9   2/13
OREGON INLET NC  1342   82 82  230/  3/  4 1019.7F
HATTERAS NC      1348   83 82  160/  4/  5 1020.0R
DIAMOND SHLS NC  1250   82 87  260/  2/  4 1019.8    2/11   2/11
CAPE LOOKOUT NC  1300   82     130/  3/  4 1019.4S
$$




USA.gov is the U.S. government's official web portal to all federal, state and local government web resources and services.